COSMOS 2582

导读

COSMOS 2582是独联体(CIS)于2025年2月5日发射的俄罗斯宇宙系列卫星,它与Kosmos 2581、Kosmos 2583一道,由联盟-2.1V火箭从普列谢茨克航天发射场发射入轨,运行在地球上方约585公里的近极轨道。作为俄罗斯保密军事卫星系列成员,该卫星具体任务未公开披露,入轨后曾展现特殊活动,引发空间观测领域广泛关注。

基本信息
目录编号:
62903
目录名称:
COSMOS 2582
国际标识:
2025-026B
轨道中心:
EARTH
卫星名称:
COSMOS 2582
卫星全名:
COSMOS 2582
卫星状态:
在轨 (已飞行586 天)
发射日期:
2025-02-05 UTC
国别 :
俄罗斯(独联体) (CIS)
星等 :
--
该卫星已列入 空间交会检测服务 Space Conjunction Data Service (SCDS) ,当前飞行风险评估等级: 无高风险
轨道信息
数据来源 国际轨道数据
星历时间: 2026-09-14T02:23:19+0800
6小时前
查看轨道信息
半长轴: 6960.126km
偏心率: 0.0011111
轨道倾角: 81.999°
近地点辐角 120.288°
升交点赤经 344.101°
平近点角 239.944°
近地点: 574.255km
远地点: 589.723km
周期: 96.313分钟
每日圈数: 14.951239
详细信息
使用方式:
暂无
2D轨道图
3D轨道图
轨道高度分析图
轨道倾角分析图
轨道综合分析图
查看轨道综合分析图
交会数据列表
事件ID 空间交会对象 最接近时刻(TCA) 交会距离 交会风险概率(CRP) 交会风险指数(CRI) 操作
CDM_260914-203605-576406-290321
2026-09-14T
20:36:49+0000
1.290 km
极远距离
1.023551E-5 中风险 0.55
CDM_260914-082606-290306-990422
2026-09-14T
08:26:59+0000
1.920 km
极远距离
3.222744E-6 低风险 0.45
CDM_260915-074805-565706-290322
2026-09-15T
07:48:50+0000
1.918 km
极远距离
2.147773E-6 低风险 0.42
与全量物体交会距离演化趋势
与全量物体交会风险概率演化趋势